Location: CNYAC Observatory
(43.2150°N, 74.9500°W)
Time: 21:35:23
(UTC-04:00)

Cosmos 1975 Rocket - Visible Passes

Search period start: 22 October 2014 00:00
Search period end: 01 November 2014 00:00
Orbit: 604 x 637 km, 82.5° (Epoch: 22 October)

Date Brightness Start Highest point End Pass type
(mag) Time Alt. Az. Time Alt. Az. Time Alt. Az.
24 Oct 6.0 06:56:15 10° NNE 06:58:47 15° ENE 07:01:18 10° ESE visible
28 Oct 6.0 06:29:27 10° NNE 06:32:16 16° ENE 06:35:04 10° ESE visible
29 Oct 5.3 06:46:28 10° NNE 06:50:19 29° ENE 06:54:09 10° SE visible
31 Oct 5.2 19:54:09 10° S 19:54:43 14° S 19:54:43 14° S visible
